Time,TemperatureF,DewpointF,PressureIn,WindDirection,WindDirectionDegrees,WindSpeedMPH,WindSpeedGustMPH,Humidity,HourlyPrecipIn,Conditions,Clouds,dailyrainin,SoftwareType,DateUTC
2013-05-21 00:02:00,75.7,71.9,29.91,SE,135,0.0,0.0,88,0.00,,---,0.00,VWS V14.01,2013-05-21 05:02:00,
2013-05-21 00:07:00,75.7,71.9,29.91,SSE,158,0.0,0.0,88,0.00,,---,0.00,VWS V14.01,2013-05-21 05:07:00,
2013-05-21 00:12:00,75.7,71.9,29.91,SSE,158,0.0,0.0,88,0.00,,---,0.00,VWS V14.01,2013-05-21 05:12:00,
2013-05-21 00:17:00,75.7,71.9,29.91,ESE,112,0.0,1.3,88,0.00,,---,0.00,VWS V14.01,2013-05-21 05:17:00,
2013-05-21 00:22:00,75.7,71.9,29.91,ESE,112,0.0,0.0,88,0.00,,---,0.00,VWS V14.01,2013-05-21 05:22:00,
2013-05-21 00:27:00,75.7,71.9,29.91,SSE,158,1.3,1.3,88,0.00,,---,0.00,VWS V14.01,2013-05-21 05:27:00,
2013-05-21 00:32:00,75.7,71.9,29.94,South,180,0.0,0.0,88,0.00,,---,0.00,VWS V14.01,2013-05-21 05:32:00,
2013-05-21 00:37:00,75.7,71.9,29.94,SE,135,0.0,0.0,88,0.00,,---,0.00,VWS V14.01,2013-05-21 05:37:00,
2013-05-21 00:42:00,75.7,71.9,29.94,ESE,112,0.0,0.0,88,0.00,,---,0.00,VWS V14.01,2013-05-21 05:42:00,
2013-05-21 00:47:00,75.7,71.5,29.94,ESE,112,0.0,0.0,87,0.00,,---,0.00,VWS V14.01,2013-05-21 05:47:00,
2013-05-21 00:52:00,75.7,71.5,29.94,SE,135,0.0,0.0,87,0.00,,---,0.00,VWS V14.01,2013-05-21 05:52:00,
2013-05-21 00:57:00,75.7,71.5,29.94,SE,135,0.0,0.0,87,0.00,,---,0.00,VWS V14.01,2013-05-21 05:57:00,
2013-05-21 01:02:00,75.7,71.9,29.91,SE,135,0.0,0.0,88,0.00,,---,0.00,VWS V14.01,2013-05-21 06:02:00,
2013-05-21 01:07:00,75.5,71.7,29.91,SSE,158,0.0,0.0,88,0.00,,---,0.00,VWS V14.01,2013-05-21 06:07:00,
2013-05-21 01:12:00,75.5,71.7,29.91,SSE,158,0.0,0.0,88,0.00,,---,0.00,VWS V14.01,2013-05-21 06:12:00,
2013-05-21 01:17:00,75.5,71.7,29.91,SSE,158,0.0,0.0,88,0.00,,---,0.00,VWS V14.01,2013-05-21 06:17:00,
2013-05-21 01:22:00,75.5,71.7,29.91,SE,135,0.0,0.0,88,0.00,,---,0.00,VWS V14.01,2013-05-21 06:22:00,
2013-05-21 01:27:00,75.5,71.7,29.91,SSE,158,0.0,0.0,88,0.00,,---,0.00,VWS V14.01,2013-05-21 06:27:00,
2013-05-21 01:32:00,75.3,71.5,29.91,SSE,158,0.0,0.0,88,0.00,,---,0.00,VWS V14.01,2013-05-21 06:32:00,
2013-05-21 01:37:00,75.3,71.5,29.91,SSE,158,0.0,0.0,88,0.00,,---,0.00,VWS V14.01,2013-05-21 06:37:00,
2013-05-21 01:42:00,75.3,71.5,29.91,SSE,158,0.0,0.0,88,0.00,,---,0.00,VWS V14.01,2013-05-21 06:42:00,
2013-05-21 01:47:00,75.3,71.5,29.91,East,90,2.0,3.1,88,0.00,,---,0.00,VWS V14.01,2013-05-21 06:47:00,
2013-05-21 01:52:00,75.3,71.5,29.91,SSE,158,0.0,0.9,88,0.00,,---,0.00,VWS V14.01,2013-05-21 06:52:00,
2013-05-21 01:57:00,75.3,71.5,29.91,SSE,158,0.0,0.0,88,0.00,,---,0.00,VWS V14.01,2013-05-21 06:57:00,
2013-05-21 02:02:00,75.3,71.5,29.91,SE,135,0.9,2.2,88,0.00,,---,0.00,VWS V14.01,2013-05-21 07:02:00,
2013-05-21 02:07:00,75.3,71.5,29.91,SSW,202,0.0,0.0,88,0.00,,---,0.00,VWS V14.01,2013-05-21 07:07:00,
2013-05-21 02:12:00,75.3,71.5,29.91,SSE,158,0.0,0.0,88,0.00,,---,0.00,VWS V14.01,2013-05-21 07:12:00,
2013-05-21 02:17:00,75.3,71.2,29.91,SSE,158,1.1,1.1,87,0.00,,---,0.00,VWS V14.01,2013-05-21 07:17:00,
2013-05-21 02:22:00,75.3,70.8,29.91,WSW,248,2.5,2.5,86,0.00,,---,0.00,VWS V14.01,2013-05-21 07:22:00,
2013-05-21 02:27:00,75.3,70.8,29.91,SSE,158,0.0,0.0,86,0.00,,---,0.00,VWS V14.01,2013-05-21 07:27:00,
2013-05-21 02:32:00,75.3,70.5,29.91,SSE,158,0.0,0.0,85,0.00,,---,0.00,VWS V14.01,2013-05-21 07:32:00,
2013-05-21 02:37:00,75.3,70.5,29.91,WSW,248,1.6,1.6,85,0.00,,---,0.00,VWS V14.01,2013-05-21 07:37:00,
2013-05-21 02:43:00,75.3,70.5,29.91,WNW,292,0.0,1.3,85,0.00,,---,0.00,VWS V14.01,2013-05-21 07:43:00,
2013-05-21 02:48:00,75.3,70.5,29.91,SSE,158,0.0,2.9,85,0.00,,---,0.00,VWS V14.01,2013-05-21 07:48:00,
2013-05-21 02:53:00,75.1,70.3,29.91,SSE,158,3.6,3.6,85,0.00,,---,0.00,VWS V14.01,2013-05-21 07:53:00,
2013-05-21 02:58:00,75.1,70.3,29.91,East,90,0.0,0.0,85,0.00,,---,0.00,VWS V14.01,2013-05-21 07:58:00,
2013-05-21 03:03:00,75.1,70.3,29.91,ESE,112,0.0,0.0,85,0.00,,---,0.00,VWS V14.01,2013-05-21 08:03:00,
2013-05-21 03:08:00,74.9,70.1,29.91,SSE,158,0.0,0.0,85,0.00,,---,0.00,VWS V14.01,2013-05-21 08:08:00,
2013-05-21 03:13:00,74.9,70.1,29.91,SSE,158,0.0,0.0,85,0.00,,---,0.00,VWS V14.01,2013-05-21 08:13:00,
2013-05-21 03:18:00,74.8,69.9,29.91,SSE,158,0.0,0.0,85,0.00,,---,0.00,VWS V14.01,2013-05-21 08:18:00,
2013-05-21 03:23:00,74.6,69.8,29.91,SSE,158,0.0,0.0,85,0.00,,---,0.00,VWS V14.01,2013-05-21 08:23:00,
2013-05-21 03:28:00,74.4,69.9,29.91,SSE,158,0.0,0.0,86,0.00,,---,0.00,VWS V14.01,2013-05-21 08:28:00,
2013-05-21 03:33:00,74.2,69.8,29.91,SSW,202,0.0,0.0,86,0.00,,---,0.00,VWS V14.01,2013-05-21 08:33:00,
2013-05-21 03:38:00,74.0,69.9,29.91,SSE,158,0.0,0.0,87,0.00,,---,0.00,VWS V14.01,2013-05-21 08:38:00,
2013-05-21 03:43:00,73.9,69.8,29.91,SSE,158,0.0,0.0,87,0.00,,---,0.00,VWS V14.01,2013-05-21 08:43:00,
2013-05-21 03:48:00,73.7,69.6,29.91,SSE,158,0.0,0.0,87,0.00,,---,0.00,VWS V14.01,2013-05-21 08:48:00,
2013-05-21 03:53:00,73.5,69.7,29.91,SSE,158,0.0,0.0,88,0.00,,---,0.00,VWS V14.01,2013-05-21 08:53:00,
2013-05-21 03:58:00,73.3,69.6,29.91,SSE,158,0.0,0.0,88,0.00,,---,0.00,VWS V14.01,2013-05-21 08:58:00,
2013-05-21 04:03:00,73.1,69.7,29.91,SSE,158,0.0,0.0,89,0.00,,---,0.00,VWS V14.01,2013-05-21 09:03:00,
2013-05-21 04:08:00,73.0,69.5,29.91,SSE,158,0.0,0.0,89,0.00,,---,0.00,VWS V14.01,2013-05-21 09:08:00,
2013-05-21 04:13:00,73.0,69.5,29.91,SSE,158,0.0,0.0,89,0.00,,---,0.00,VWS V14.01,2013-05-21 09:13:00,
2013-05-21 04:18:00,72.6,69.2,29.91,SSE,158,0.0,0.0,89,0.00,,---,0.00,VWS V14.01,2013-05-21 09:18:00,
2013-05-21 04:23:00,72.6,69.5,29.91,SSE,158,0.0,0.0,90,0.00,,---,0.00,VWS V14.01,2013-05-21 09:23:00,
2013-05-21 04:28:00,72.4,69.3,29.91,SSE,158,0.0,0.0,90,0.00,,---,0.00,VWS V14.01,2013-05-21 09:28:00,
2013-05-21 04:33:00,72.2,69.2,29.91,SSE,158,0.0,0.0,90,0.00,,---,0.00,VWS V14.01,2013-05-21 09:33:00,
2013-05-21 04:38:00,72.1,69.3,29.91,SSE,158,0.0,0.0,91,0.00,,---,0.00,VWS V14.01,2013-05-21 09:38:00,
2013-05-21 04:43:00,71.9,69.1,29.91,SSE,158,0.0,0.0,91,0.00,,---,0.00,VWS V14.01,2013-05-21 09:43:00,
2013-05-21 04:48:00,71.9,69.1,29.91,SSE,158,0.0,0.0,91,0.00,,---,0.00,VWS V14.01,2013-05-21 09:48:00,
2013-05-21 04:53:00,71.7,68.9,29.91,SSE,158,0.0,0.0,91,0.00,,---,0.00,VWS V14.01,2013-05-21 09:53:00,
2013-05-21 04:58:00,71.5,68.8,29.91,SSE,158,0.0,0.0,91,0.00,,---,0.00,VWS V14.01,2013-05-21 09:58:00,
2013-05-21 05:03:00,71.5,69.1,29.91,SSE,158,0.0,0.0,92,0.00,,---,0.00,VWS V14.01,2013-05-21 10:03:00,
2013-05-21 05:08:00,71.3,68.9,29.91,SSE,158,0.0,0.0,92,0.00,,---,0.00,VWS V14.01,2013-05-21 10:08:00,
2013-05-21 05:13:00,71.3,68.9,29.91,SSE,158,0.0,0.0,92,0.00,,---,0.00,VWS V14.01,2013-05-21 10:13:00,
2013-05-21 05:18:00,71.2,68.7,29.91,SSE,158,0.0,0.0,92,0.00,,---,0.00,VWS V14.01,2013-05-21 10:18:00,
2013-05-21 05:23:00,71.0,68.9,29.91,SSE,158,0.0,0.0,93,0.00,,---,0.00,VWS V14.01,2013-05-21 10:23:00,
2013-05-21 05:28:00,71.0,68.9,29.91,SSE,158,0.0,0.0,93,0.00,,---,0.00,VWS V14.01,2013-05-21 10:28:00,
2013-05-21 05:33:00,71.0,68.9,29.91,SSE,158,0.0,0.0,93,0.00,,---,0.00,VWS V14.01,2013-05-21 10:33:00,
2013-05-21 05:38:00,71.0,68.9,29.91,SSE,158,0.0,0.0,93,0.00,,---,0.00,VWS V14.01,2013-05-21 10:38:00,
2013-05-21 05:43:00,70.8,68.7,29.94,SSE,158,0.0,0.0,93,0.00,,---,0.00,VWS V14.01,2013-05-21 10:43:00,
2013-05-21 05:48:00,70.8,69.0,29.94,SSE,158,0.0,0.0,94,0.00,,---,0.00,VWS V14.01,2013-05-21 10:48:00,
2013-05-21 05:53:00,70.6,68.8,29.94,SSE,158,0.0,0.0,94,0.00,,---,0.00,VWS V14.01,2013-05-21 10:53:00,
2013-05-21 05:58:00,70.6,68.8,29.91,SSE,158,0.0,0.0,94,0.00,,---,0.00,VWS V14.01,2013-05-21 10:58:00,
2013-05-21 06:03:00,70.6,68.8,29.91,SE,135,0.0,0.0,94,0.00,,---,0.00,VWS V14.01,2013-05-21 11:03:00,
2013-05-21 06:08:00,70.6,68.8,29.91,SE,135,0.0,0.0,94,0.00,,---,0.00,VWS V14.01,2013-05-21 11:08:00,
2013-05-21 06:13:00,70.4,68.6,29.94,SE,135,0.0,0.0,94,0.00,,---,0.00,VWS V14.01,2013-05-21 11:13:00,
2013-05-21 06:18:00,70.4,68.9,29.94,SE,135,0.0,0.0,95,0.00,,---,0.00,VWS V14.01,2013-05-21 11:18:00,
2013-05-21 06:23:00,70.4,68.9,29.94,SE,135,0.0,0.0,95,0.00,,---,0.00,VWS V14.01,2013-05-21 11:23:00,
2013-05-21 06:28:00,70.4,68.9,29.94,SE,135,0.0,0.0,95,0.00,,---,0.00,VWS V14.01,2013-05-21 11:28:00,
2013-05-21 06:33:00,70.6,69.1,29.94,ENE,68,0.0,0.0,95,0.00,,---,0.00,VWS V14.01,2013-05-21 11:33:00,
2013-05-21 06:38:00,70.6,69.1,29.94,SSW,202,0.0,0.0,95,0.00,,---,0.00,VWS V14.01,2013-05-21 11:38:00,
2013-05-21 06:43:00,70.6,69.1,29.94,SSE,158,0.0,0.0,95,0.00,,---,0.00,VWS V14.01,2013-05-21 11:43:00,
2013-05-21 06:48:00,70.6,69.1,29.94,ENE,68,0.0,0.0,95,0.00,,---,0.00,VWS V14.01,2013-05-21 11:48:00,
2013-05-21 06:53:00,70.8,69.3,29.94,SSE,158,0.0,0.0,95,0.00,,---,0.00,VWS V14.01,2013-05-21 11:53:00,
2013-05-21 06:58:00,70.8,69.3,29.94,ESE,112,0.0,0.0,95,0.00,,---,0.00,VWS V14.01,2013-05-21 11:58:00,
2013-05-21 07:03:00,71.0,69.5,29.94,SSE,158,0.0,0.0,95,0.00,,---,0.00,VWS V14.01,2013-05-21 12:03:00,
2013-05-21 07:08:00,71.2,69.7,29.94,ESE,112,0.0,0.0,95,0.00,,---,0.00,VWS V14.01,2013-05-21 12:08:00,
2013-05-21 07:13:00,71.3,69.8,29.94,ESE,112,0.0,0.0,95,0.00,,---,0.00,VWS V14.01,2013-05-21 12:13:00,
2013-05-21 07:18:00,71.3,69.8,29.94,ESE,112,0.0,0.0,95,0.00,,---,0.00,VWS V14.01,2013-05-21 12:18:00,
2013-05-21 07:24:00,71.3,69.8,29.94,ESE,112,0.0,0.0,95,0.00,,---,0.00,VWS V14.01,2013-05-21 12:24:00,
2013-05-21 07:28:00,71.5,70.0,29.94,East,90,0.0,0.0,95,0.00,,---,0.00,VWS V14.01,2013-05-21 12:28:00,
2013-05-21 07:34:00,71.5,70.0,29.94,East,90,0.0,0.0,95,0.00,,---,0.00,VWS V14.01,2013-05-21 12:34:00,
2013-05-21 07:39:00,71.5,70.0,29.94,ESE,112,0.0,0.0,95,0.00,,---,0.00,VWS V14.01,2013-05-21 12:39:00,
2013-05-21 07:44:00,71.7,70.2,29.94,ESE,112,0.0,0.0,95,0.00,,---,0.00,VWS V14.01,2013-05-21 12:44:00,
2013-05-21 07:49:00,71.9,70.4,29.94,SE,135,0.0,0.0,95,0.00,,---,0.00,VWS V14.01,2013-05-21 12:49:00,
2013-05-21 07:54:00,72.2,70.7,29.94,ESE,112,0.0,0.0,95,0.00,,---,0.00,VWS V14.01,2013-05-21 12:54:00,
2013-05-21 07:59:00,72.6,71.1,29.91,SSW,202,0.0,0.0,95,0.00,,---,0.00,VWS V14.01,2013-05-21 12:59:00,
2013-05-21 08:04:00,73.0,71.4,29.91,SSE,158,2.2,2.2,95,0.00,,---,0.00,VWS V14.01,2013-05-21 13:04:00,
2013-05-21 08:09:00,73.5,72.0,29.91,ESE,112,0.0,0.0,95,0.00,,---,0.00,VWS V14.01,2013-05-21 13:09:00,
2013-05-21 08:14:00,73.9,72.3,29.94,SSW,202,0.0,0.0,95,0.00,,---,0.00,VWS V14.01,2013-05-21 13:14:00,
2013-05-21 08:19:00,74.2,72.4,29.94,SSE,158,2.7,2.7,94,0.00,,---,0.00,VWS V14.01,2013-05-21 13:19:00,
2013-05-21 08:24:00,74.6,72.4,29.94,SSE,158,0.0,1.3,93,0.00,,---,0.00,VWS V14.01,2013-05-21 13:24:00,
2013-05-21 08:29:00,74.8,72.6,29.94,East,90,2.5,4.3,93,0.00,,---,0.00,VWS V14.01,2013-05-21 13:29:00,
2013-05-21 08:34:00,75.1,72.3,29.91,ESE,112,0.0,0.0,91,0.00,,---,0.00,VWS V14.01,2013-05-21 13:34:00,
2013-05-21 08:39:00,75.7,72.5,29.91,SSW,202,0.0,2.0,90,0.00,,---,0.00,VWS V14.01,2013-05-21 13:39:00,
2013-05-21 08:44:00,76.0,72.9,29.91,SSW,202,0.0,0.0,90,0.00,,---,0.00,VWS V14.01,2013-05-21 13:44:00,
2013-05-21 08:49:00,76.6,73.1,29.91,East,90,0.0,0.0,89,0.00,,---,0.00,VWS V14.01,2013-05-21 13:49:00,
2013-05-21 08:54:00,77.3,73.4,29.91,West,270,0.0,3.1,88,0.00,,---,0.00,VWS V14.01,2013-05-21 13:54:00,
2013-05-21 08:59:00,77.6,72.8,29.94,SSE,158,3.8,3.8,85,0.00,,---,0.00,VWS V14.01,2013-05-21 13:59:00,
2013-05-21 09:04:00,78.0,72.1,29.94,SSW,202,0.0,2.0,82,0.00,,---,0.00,VWS V14.01,2013-05-21 14:04:00,
2013-05-21 09:09:00,78.4,72.4,29.94,SSE,158,0.9,2.5,82,0.00,,---,0.00,VWS V14.01,2013-05-21 14:09:00,
2013-05-21 09:14:00,78.7,72.4,29.94,SSW,202,0.0,0.0,81,0.00,,---,0.00,VWS V14.01,2013-05-21 14:14:00,
2013-05-21 09:19:00,79.1,72.4,29.94,ESE,112,2.7,3.1,80,0.00,,---,0.00,VWS V14.01,2013-05-21 14:19:00,
2013-05-21 09:24:00,79.6,72.5,29.94,ESE,112,1.1,2.5,79,0.00,,---,0.00,VWS V14.01,2013-05-21 14:24:00,
2013-05-21 09:29:00,79.8,72.3,29.94,ESE,112,0.0,0.0,78,0.00,,---,0.00,VWS V14.01,2013-05-21 14:29:00,
2013-05-21 09:34:00,80.0,71.7,29.94,SSW,202,0.0,0.0,76,0.00,,---,0.00,VWS V14.01,2013-05-21 14:34:00,
2013-05-21 09:39:00,80.0,71.3,29.94,SSW,202,0.0,0.0,75,0.00,,---,0.00,VWS V14.01,2013-05-21 14:39:00,
2013-05-21 09:44:00,80.3,71.7,29.94,SSW,202,0.0,0.0,75,0.00,,---,0.00,VWS V14.01,2013-05-21 14:44:00,
2013-05-21 09:49:00,80.7,72.0,29.94,NW,315,0.0,0.0,75,0.00,,---,0.00,VWS V14.01,2013-05-21 14:49:00,
2013-05-21 09:54:00,80.9,71.8,29.94,SSE,158,0.0,0.0,74,0.00,,---,0.00,VWS V14.01,2013-05-21 14:54:00,
2013-05-21 09:59:00,81.2,71.8,29.94,WSW,248,2.0,2.0,73,0.00,,---,0.00,VWS V14.01,2013-05-21 14:59:00,
2013-05-21 10:04:00,81.4,71.1,29.94,SSW,202,0.0,0.0,71,0.00,,---,0.00,VWS V14.01,2013-05-21 15:04:00,
2013-05-21 10:09:00,81.8,71.1,29.94,South,180,0.0,0.0,70,0.00,,---,0.00,VWS V14.01,2013-05-21 15:09:00,
2013-05-21 10:14:00,81.8,69.3,29.94,ENE,68,1.1,1.1,66,0.00,,---,0.00,VWS V14.01,2013-05-21 15:14:00,
2013-05-21 10:19:00,82.0,69.5,29.94,WNW,292,1.3,1.3,66,0.00,,---,0.00,VWS V14.01,2013-05-21 15:19:00,
2013-05-21 10:24:00,82.1,70.1,29.94,ESE,112,0.0,0.0,67,0.00,,---,0.00,VWS V14.01,2013-05-21 15:24:00,
2013-05-21 10:29:00,82.3,68.9,29.94,SSE,158,2.5,2.5,64,0.00,,---,0.00,VWS V14.01,2013-05-21 15:29:00,
2013-05-21 10:34:00,82.5,69.6,29.94,WSW,248,0.0,1.1,65,0.00,,---,0.00,VWS V14.01,2013-05-21 15:34:00,
2013-05-21 10:39:00,82.5,69.6,29.94,SE,135,0.0,0.9,65,0.00,,---,0.00,VWS V14.01,2013-05-21 15:39:00,
2013-05-21 10:44:00,82.7,69.7,29.91,WSW,248,1.1,1.1,65,0.00,,---,0.00,VWS V14.01,2013-05-21 15:44:00,
2013-05-21 10:49:00,82.9,69.9,29.91,SSE,158,3.4,3.4,65,0.00,,---,0.00,VWS V14.01,2013-05-21 15:49:00,
2013-05-21 10:54:00,83.0,70.1,29.91,SSW,202,0.0,0.0,65,0.00,,---,0.00,VWS V14.01,2013-05-21 15:54:00,
2013-05-21 10:59:00,83.4,70.4,29.91,SSE,158,0.0,0.0,65,0.00,,---,0.00,VWS V14.01,2013-05-21 15:59:00,
2013-05-21 11:04:00,83.4,69.0,29.91,SSE,158,3.8,3.8,62,0.00,,---,0.00,VWS V14.01,2013-05-21 16:04:00,
2013-05-21 11:09:00,83.6,69.2,29.91,East,90,2.7,3.8,62,0.00,,---,0.00,VWS V14.01,2013-05-21 16:09:00,
2013-05-21 11:14:00,83.6,68.7,29.94,NNE,22,0.0,0.0,61,0.00,,---,0.00,VWS V14.01,2013-05-21 16:14:00,
2013-05-21 11:19:00,83.9,70.0,29.94,WSW,248,0.0,3.1,63,0.00,,---,0.00,VWS V14.01,2013-05-21 16:19:00,
2013-05-21 11:24:00,83.9,69.1,29.94,SSE,158,4.3,5.4,61,0.00,,---,0.00,VWS V14.01,2013-05-21 16:24:00,
2013-05-21 11:29:00,84.3,69.4,29.91,WSW,248,0.0,2.0,61,0.00,,---,0.00,VWS V14.01,2013-05-21 16:29:00,
2013-05-21 11:34:00,84.3,68.4,29.91,SW,225,1.1,1.1,59,0.00,,---,0.00,VWS V14.01,2013-05-21 16:34:00,
2013-05-21 11:39:00,84.7,69.7,29.91,SSW,202,0.0,3.4,61,0.00,,---,0.00,VWS V14.01,2013-05-21 16:39:00,
2013-05-21 11:44:00,84.7,68.3,29.91,South,180,0.0,0.9,58,0.00,,---,0.00,VWS V14.01,2013-05-21 16:44:00,
2013-05-21 11:50:00,85.0,69.6,29.91,SSW,202,0.0,2.0,60,0.00,,---,0.00,VWS V14.01,2013-05-21 16:50:00,
2013-05-21 11:54:00,85.2,69.3,29.91,SSE,158,2.9,2.9,59,0.00,,---,0.00,VWS V14.01,2013-05-21 16:54:00,
2013-05-21 12:00:00,85.2,68.8,29.91,SSE,158,0.0,0.0,58,0.00,,---,0.00,VWS V14.01,2013-05-21 17:00:00,
2013-05-21 12:05:00,85.0,68.6,29.91,WSW,248,2.5,2.9,58,0.00,,---,0.00,VWS V14.01,2013-05-21 17:05:00,
2013-05-21 12:10:00,85.0,68.6,29.91,SSW,202,0.0,1.3,58,0.00,,---,0.00,VWS V14.01,2013-05-21 17:10:00,
2013-05-21 12:15:00,85.4,67.9,29.91,WSW,248,2.0,2.0,56,0.00,,---,0.00,VWS V14.01,2013-05-21 17:15:00,
2013-05-21 12:20:00,85.4,68.4,29.91,ESE,112,2.0,2.0,57,0.00,,---,0.00,VWS V14.01,2013-05-21 17:20:00,
2013-05-21 12:25:00,85.2,68.3,29.91,South,180,0.0,1.6,57,0.00,,---,0.00,VWS V14.01,2013-05-21 17:25:00,
2013-05-21 12:30:00,85.7,69.8,29.91,SSW,202,2.5,2.7,59,0.00,,---,0.00,VWS V14.01,2013-05-21 17:30:00,
2013-05-21 12:35:00,86.1,68.6,29.91,SSW,202,1.6,2.5,56,0.00,,---,0.00,VWS V14.01,2013-05-21 17:35:00,
2013-05-21 12:40:00,86.3,69.8,29.91,South,180,0.0,0.0,58,0.00,,---,0.00,VWS V14.01,2013-05-21 17:40:00,
2013-05-21 12:45:00,86.6,70.1,29.91,SSE,158,0.0,2.7,58,0.00,,---,0.00,VWS V14.01,2013-05-21 17:45:00,
2013-05-21 12:50:00,86.6,70.1,29.91,SE,135,0.0,0.0,58,0.00,,---,0.00,VWS V14.01,2013-05-21 17:50:00,
2013-05-21 12:55:00,86.6,70.6,29.91,South,180,0.0,2.0,59,0.00,,---,0.00,VWS V14.01,2013-05-21 17:55:00,
2013-05-21 13:00:00,86.6,70.1,29.91,ESE,112,3.1,3.1,58,0.00,,---,0.00,VWS V14.01,2013-05-21 18:00:00,
2013-05-21 13:05:00,86.6,69.6,29.91,SSE,158,1.3,4.3,57,0.00,,---,0.00,VWS V14.01,2013-05-21 18:05:00,
2013-05-21 13:10:00,87.0,69.9,29.91,ENE,68,2.5,2.5,57,0.00,,---,0.00,VWS V14.01,2013-05-21 18:10:00,
2013-05-21 13:15:00,87.7,70.1,29.91,West,270,2.0,5.4,56,0.00,,---,0.00,VWS V14.01,2013-05-21 18:15:00,
2013-05-21 13:20:00,87.7,70.1,29.91,ESE,112,1.3,3.4,56,0.00,,---,0.00,VWS V14.01,2013-05-21 18:20:00,
2013-05-21 13:25:00,87.9,70.3,29.91,SE,135,0.0,2.5,56,0.00,,---,0.00,VWS V14.01,2013-05-21 18:25:00,
2013-05-21 13:30:00,88.1,70.4,29.91,SSE,158,0.0,0.0,56,0.00,,---,0.00,VWS V14.01,2013-05-21 18:30:00,
2013-05-21 13:35:00,88.4,69.2,29.91,West,270,0.0,2.5,53,0.00,,---,0.00,VWS V14.01,2013-05-21 18:35:00,
2013-05-21 13:40:00,88.3,70.1,29.91,SSE,158,2.5,2.5,55,0.00,,---,0.00,VWS V14.01,2013-05-21 18:40:00,
2013-05-21 13:45:00,88.4,70.2,29.91,ENE,68,2.9,3.8,55,0.00,,---,0.00,VWS V14.01,2013-05-21 18:45:00,
2013-05-21 13:50:00,88.1,69.4,29.91,ENE,68,0.0,3.6,54,0.00,,---,0.00,VWS V14.01,2013-05-21 18:50:00,
2013-05-21 13:55:00,88.4,69.7,29.91,SSW,202,2.0,2.0,54,0.00,,---,0.00,VWS V14.01,2013-05-21 18:55:00,
2013-05-21 14:00:00,88.6,68.8,29.88,SSW,202,2.0,2.0,52,0.00,,---,0.00,VWS V14.01,2013-05-21 19:00:00,
2013-05-21 14:05:00,88.1,68.8,29.88,SSE,158,2.0,2.7,53,0.00,,---,0.00,VWS V14.01,2013-05-21 19:05:00,
2013-05-21 14:10:00,88.1,68.3,29.88,SSE,158,0.9,0.9,52,0.00,,---,0.00,VWS V14.01,2013-05-21 19:10:00,
2013-05-21 14:15:00,88.3,68.4,29.88,NE,45,2.9,3.6,52,0.00,,---,0.00,VWS V14.01,2013-05-21 19:15:00,
2013-05-21 14:20:00,87.4,66.5,29.88,ENE,68,2.5,2.5,50,0.00,,---,0.00,VWS V14.01,2013-05-21 19:20:00,
2013-05-21 14:25:00,87.5,67.8,29.88,SW,225,1.3,2.0,52,0.00,,---,0.00,VWS V14.01,2013-05-21 19:25:00,
2013-05-21 14:30:00,88.1,67.7,29.91,West,270,0.0,0.9,51,0.00,,---,0.00,VWS V14.01,2013-05-21 19:30:00,
2013-05-21 14:35:00,87.4,67.6,29.91,ESE,112,0.0,2.5,52,0.00,,---,0.00,VWS V14.01,2013-05-21 19:35:00,
2013-05-21 14:40:00,87.4,68.2,29.91,SSE,158,0.0,0.0,53,0.00,,---,0.00,VWS V14.01,2013-05-21 19:40:00,
2013-05-21 14:45:00,87.0,67.8,29.88,SW,225,2.5,2.5,53,0.00,,---,0.00,VWS V14.01,2013-05-21 19:45:00,
2013-05-21 14:50:00,87.9,69.2,29.88,East,90,1.3,2.9,54,0.00,,---,0.00,VWS V14.01,2013-05-21 19:50:00,
2013-05-21 14:55:00,87.5,68.3,29.88,SSE,158,1.3,2.5,53,0.00,,---,0.00,VWS V14.01,2013-05-21 19:55:00,
2013-05-21 15:00:00,87.4,68.2,29.88,SSE,158,3.1,3.1,53,0.00,,---,0.00,VWS V14.01,2013-05-21 20:00:00,
2013-05-21 15:05:00,88.1,69.4,29.88,ENE,68,0.0,2.2,54,0.00,,---,0.00,VWS V14.01,2013-05-21 20:05:00,
2013-05-21 15:10:00,88.6,69.3,29.88,ESE,112,3.6,3.6,53,0.00,,---,0.00,VWS V14.01,2013-05-21 20:10:00,
2013-05-21 15:15:00,88.4,69.7,29.88,SSE,158,2.7,2.7,54,0.00,,---,0.00,VWS V14.01,2013-05-21 20:15:00,
2013-05-21 15:20:00,88.1,66.5,29.88,SSE,158,0.0,1.3,49,0.00,,---,0.00,VWS V14.01,2013-05-21 20:20:00,
2013-05-21 15:25:00,88.1,67.7,29.88,West,270,0.0,3.1,51,0.00,,---,0.00,VWS V14.01,2013-05-21 20:25:00,
2013-05-21 15:31:00,87.4,66.5,29.88,SSW,202,0.0,0.0,50,0.00,,---,0.00,VWS V14.01,2013-05-21 20:31:00,
2013-05-21 15:36:00,87.2,67.4,29.88,SSE,158,1.6,2.5,52,0.00,,---,0.00,VWS V14.01,2013-05-21 20:36:00,
2013-05-21 15:41:00,87.4,67.0,29.88,West,270,1.3,2.2,51,0.00,,---,0.00,VWS V14.01,2013-05-21 20:41:00,
2013-05-21 15:46:00,87.4,67.0,29.85,SSW,202,2.2,2.2,51,0.00,,---,0.00,VWS V14.01,2013-05-21 20:46:00,
2013-05-21 15:51:00,87.7,66.8,29.85,SW,225,2.9,2.9,50,0.00,,---,0.00,VWS V14.01,2013-05-21 20:51:00,
2013-05-21 15:56:00,87.2,66.3,29.85,SSE,158,2.0,3.1,50,0.00,,---,0.00,VWS V14.01,2013-05-21 20:56:00,
2013-05-21 16:01:00,87.4,67.6,29.85,SE,135,2.5,2.7,52,0.00,,---,0.00,VWS V14.01,2013-05-21 21:01:00,
2013-05-21 16:06:00,87.4,67.6,29.85,SSE,158,2.0,2.2,52,0.00,,---,0.00,VWS V14.01,2013-05-21 21:06:00,
2013-05-21 16:11:00,87.4,67.0,29.85,SSW,202,0.0,2.2,51,0.00,,---,0.00,VWS V14.01,2013-05-21 21:11:00,
2013-05-21 16:16:00,87.4,67.6,29.85,SE,135,2.0,2.5,52,0.00,,---,0.00,VWS V14.01,2013-05-21 21:16:00,
2013-05-21 16:21:00,87.4,67.6,29.85,SSW,202,2.2,2.2,52,0.00,,---,0.00,VWS V14.01,2013-05-21 21:21:00,
2013-05-21 16:26:00,87.4,67.6,29.85,SSE,158,0.0,2.9,52,0.00,,---,0.00,VWS V14.01,2013-05-21 21:26:00,
2013-05-21 16:31:00,87.2,67.4,29.82,ESE,112,1.3,4.3,52,0.00,,---,0.00,VWS V14.01,2013-05-21 21:31:00,
2013-05-21 16:36:00,87.0,66.1,29.82,SSE,158,1.1,6.9,50,0.00,,---,0.00,VWS V14.01,2013-05-21 21:36:00,
2013-05-21 16:41:00,86.8,66.0,29.82,SE,135,0.0,0.0,50,0.00,,---,0.00,VWS V14.01,2013-05-21 21:41:00,
2013-05-21 16:46:00,86.8,66.5,29.82,ESE,112,0.0,0.0,51,0.00,,---,0.00,VWS V14.01,2013-05-21 21:46:00,
2013-05-21 16:51:00,86.6,65.8,29.82,SSW,202,2.5,5.8,50,0.00,,---,0.00,VWS V14.01,2013-05-21 21:51:00,
2013-05-21 16:56:00,86.6,65.8,29.82,SW,225,2.0,2.0,50,0.00,,---,0.00,VWS V14.01,2013-05-21 21:56:00,
2013-05-21 17:01:00,86.5,65.6,29.79,SE,135,3.4,4.9,50,0.00,,---,0.00,VWS V14.01,2013-05-21 22:01:00,
2013-05-21 17:06:00,86.3,65.5,29.79,South,180,1.3,1.3,50,0.00,,---,0.00,VWS V14.01,2013-05-21 22:06:00,
2013-05-21 17:11:00,86.3,65.5,29.79,SE,135,1.3,3.6,50,0.00,,---,0.00,VWS V14.01,2013-05-21 22:11:00,
2013-05-21 17:16:00,86.5,66.8,29.79,SSE,158,0.0,0.0,52,0.00,,---,0.00,VWS V14.01,2013-05-21 22:16:00,
2013-05-21 17:21:00,86.1,65.3,29.79,SSE,158,1.1,2.5,50,0.00,,---,0.00,VWS V14.01,2013-05-21 22:21:00,
2013-05-21 17:26:00,85.9,65.7,29.79,SSE,158,0.0,2.0,51,0.00,,---,0.00,VWS V14.01,2013-05-21 22:26:00,
2013-05-21 17:31:00,85.7,66.1,29.79,SSE,158,1.1,4.0,52,0.00,,---,0.00,VWS V14.01,2013-05-21 22:31:00,
2013-05-21 17:36:00,85.6,65.9,29.79,SSE,158,3.8,3.8,52,0.00,,---,0.00,VWS V14.01,2013-05-21 22:36:00,
2013-05-21 17:41:00,85.6,65.9,29.79,SSW,202,0.0,1.1,52,0.00,,---,0.00,VWS V14.01,2013-05-21 22:41:00,
2013-05-21 17:46:00,85.4,65.8,29.76,SSE,158,2.5,2.5,52,0.00,,---,0.00,VWS V14.01,2013-05-21 22:46:00,
2013-05-21 17:51:00,85.2,66.2,29.76,SSE,158,2.7,3.1,53,0.00,,---,0.00,VWS V14.01,2013-05-21 22:51:00,
2013-05-21 17:56:00,85.0,65.4,29.76,SSE,158,2.7,2.7,52,0.00,,---,0.00,VWS V14.01,2013-05-21 22:56:00,
2013-05-21 18:01:00,84.8,65.3,29.76,SSE,158,1.3,5.4,52,0.00,,---,0.00,VWS V14.01,2013-05-21 23:01:00,
2013-05-21 18:06:00,84.7,65.1,29.76,SE,135,2.9,3.8,52,0.00,,---,0.00,VWS V14.01,2013-05-21 23:06:00,
2013-05-21 18:11:00,84.5,64.9,29.76,SSW,202,0.0,0.0,52,0.00,,---,0.00,VWS V14.01,2013-05-21 23:11:00,
2013-05-21 18:16:00,84.5,65.5,29.76,SE,135,1.6,2.7,53,0.00,,---,0.00,VWS V14.01,2013-05-21 23:16:00,
2013-05-21 18:21:00,84.3,64.8,29.76,SSW,202,0.0,0.9,52,0.00,,---,0.00,VWS V14.01,2013-05-21 23:21:00,
2013-05-21 18:26:00,84.1,64.6,29.76,SSE,158,3.4,3.4,52,0.00,,---,0.00,VWS V14.01,2013-05-21 23:26:00,
2013-05-21 18:31:00,83.9,65.5,29.76,SSE,158,1.3,1.3,54,0.00,,---,0.00,VWS V14.01,2013-05-21 23:31:00,
2013-05-21 18:36:00,83.6,65.2,29.76,ESE,112,3.1,3.1,54,0.00,,---,0.00,VWS V14.01,2013-05-21 23:36:00,
2013-05-21 18:41:00,83.4,65.0,29.76,SSE,158,0.0,0.0,54,0.00,,---,0.00,VWS V14.01,2013-05-21 23:41:00,
2013-05-21 18:47:00,83.0,65.7,29.79,SSE,158,0.0,0.0,56,0.00,,---,0.00,VWS V14.01,2013-05-21 23:47:00,
2013-05-21 18:52:00,82.9,65.6,29.79,SSW,202,0.0,0.0,56,0.00,,---,0.00,VWS V14.01,2013-05-21 23:52:00,
2013-05-21 18:57:00,82.3,65.6,29.79,SSW,202,0.0,0.0,57,0.00,,---,0.00,VWS V14.01,2013-05-21 23:57:00,
2013-05-21 19:02:00,82.1,66.4,29.79,ESE,112,0.0,0.0,59,0.00,,---,0.00,VWS V14.01,2013-05-22 00:02:00,
2013-05-21 19:07:00,81.6,65.9,29.79,ESE,112,0.0,0.0,59,0.00,,---,0.00,VWS V14.01,2013-05-22 00:07:00,
2013-05-21 19:12:00,81.1,66.8,29.79,ESE,112,0.0,0.0,62,0.00,,---,0.00,VWS V14.01,2013-05-22 00:12:00,
2013-05-21 19:17:00,80.7,66.9,29.79,SSE,158,0.0,0.0,63,0.00,,---,0.00,VWS V14.01,2013-05-22 00:17:00,
2013-05-21 19:22:00,80.3,67.1,29.79,SSE,158,0.0,0.0,64,0.00,,---,0.00,VWS V14.01,2013-05-22 00:22:00,
2013-05-21 19:27:00,80.0,67.2,29.79,East,90,0.0,0.0,65,0.00,,---,0.00,VWS V14.01,2013-05-22 00:27:00,
2013-05-21 19:32:00,79.6,67.3,29.79,East,90,0.0,0.0,66,0.00,,---,0.00,VWS V14.01,2013-05-22 00:32:00,
2013-05-21 19:37:00,79.3,67.4,29.79,East,90,0.0,0.0,67,0.00,,---,0.00,VWS V14.01,2013-05-22 00:37:00,
2013-05-21 19:42:00,78.9,67.4,29.79,South,180,0.0,0.0,68,0.00,,---,0.00,VWS V14.01,2013-05-22 00:42:00,
2013-05-21 19:47:00,78.5,67.1,29.79,SE,135,0.0,0.0,68,0.00,,---,0.00,VWS V14.01,2013-05-22 00:47:00,
2013-05-21 19:52:00,78.2,67.2,29.79,SE,135,0.0,0.0,69,0.00,,---,0.00,VWS V14.01,2013-05-22 00:52:00,
2013-05-21 19:57:00,78.0,67.0,29.79,SE,135,0.0,0.0,69,0.00,,---,0.00,VWS V14.01,2013-05-22 00:57:00,
2013-05-21 20:02:00,77.8,67.3,29.79,ENE,68,0.0,0.0,70,0.00,,---,0.00,VWS V14.01,2013-05-22 01:02:00,
2013-05-21 20:07:00,77.6,67.1,29.79,ENE,68,0.0,0.0,70,0.00,,---,0.00,VWS V14.01,2013-05-22 01:07:00,
2013-05-21 20:12:00,77.3,66.7,29.79,ENE,68,0.0,0.0,70,0.00,,---,0.00,VWS V14.01,2013-05-22 01:12:00,
2013-05-21 20:17:00,77.1,66.6,29.79,East,90,0.0,0.0,70,0.00,,---,0.00,VWS V14.01,2013-05-22 01:17:00,
2013-05-21 20:22:00,77.1,67.4,29.79,East,90,0.0,0.0,72,0.00,,---,0.00,VWS V14.01,2013-05-22 01:22:00,
2013-05-21 20:27:00,76.9,67.6,29.79,SSE,158,0.0,0.0,73,0.00,,---,0.00,VWS V14.01,2013-05-22 01:27:00,
2013-05-21 20:32:00,76.6,67.7,29.82,SSE,158,0.0,0.0,74,0.00,,---,0.00,VWS V14.01,2013-05-22 01:32:00,
2013-05-21 20:37:00,76.4,67.9,29.82,SSE,158,0.0,0.0,75,0.00,,---,0.00,VWS V14.01,2013-05-22 01:37:00,
2013-05-21 20:42:00,76.2,67.7,29.82,South,180,0.0,0.0,75,0.00,,---,0.00,VWS V14.01,2013-05-22 01:42:00,
2013-05-21 20:47:00,76.0,67.9,29.82,SSE,158,0.0,0.0,76,0.00,,---,0.00,VWS V14.01,2013-05-22 01:47:00,
2013-05-21 20:52:00,76.0,67.9,29.82,ESE,112,0.0,0.0,76,0.00,,---,0.00,VWS V14.01,2013-05-22 01:52:00,
2013-05-21 20:57:00,76.0,67.9,29.82,ESE,112,0.0,0.0,76,0.00,,---,0.00,VWS V14.01,2013-05-22 01:57:00,
2013-05-21 21:02:00,76.0,67.9,29.82,ESE,112,0.0,0.0,76,0.00,,---,0.00,VWS V14.01,2013-05-22 02:02:00,
2013-05-21 21:07:00,76.0,67.9,29.82,ESE,112,0.0,0.0,76,0.00,,---,0.00,VWS V14.01,2013-05-22 02:07:00,
2013-05-21 21:12:00,75.8,68.1,29.82,ESE,112,0.0,0.0,77,0.00,,---,0.00,VWS V14.01,2013-05-22 02:12:00,
2013-05-21 21:17:00,75.8,68.1,29.85,SSE,158,4.3,4.3,77,0.00,,---,0.00,VWS V14.01,2013-05-22 02:17:00,
2013-05-21 21:22:00,76.0,68.3,29.85,SSE,158,3.1,3.1,77,0.00,,---,0.00,VWS V14.01,2013-05-22 02:22:00,
2013-05-21 21:27:00,76.0,68.7,29.85,SSW,202,4.0,4.0,78,0.00,,---,0.00,VWS V14.01,2013-05-22 02:27:00,
2013-05-21 21:32:00,76.4,68.6,29.82,SSE,158,1.3,1.6,77,0.00,,---,0.00,VWS V14.01,2013-05-22 02:32:00,
2013-05-21 21:37:00,76.6,68.8,29.82,SSE,158,2.2,2.7,77,0.00,,---,0.00,VWS V14.01,2013-05-22 02:37:00,
2013-05-21 21:42:00,76.9,69.2,29.82,SE,135,2.0,2.0,77,0.00,,---,0.00,VWS V14.01,2013-05-22 02:42:00,
2013-05-21 21:47:00,77.1,69.3,29.85,SSE,158,4.3,4.3,77,0.00,,---,0.00,VWS V14.01,2013-05-22 02:47:00,
2013-05-21 21:52:00,77.3,69.1,29.85,SSE,158,0.0,0.0,76,0.00,,---,0.00,VWS V14.01,2013-05-22 02:52:00,
2013-05-21 21:57:00,77.3,69.1,29.85,East,90,0.0,0.0,76,0.00,,---,0.00,VWS V14.01,2013-05-22 02:57:00,
2013-05-21 22:02:00,77.1,69.0,29.85,WSW,248,0.0,0.0,76,0.00,,---,0.00,VWS V14.01,2013-05-22 03:02:00,
2013-05-21 22:07:00,77.1,69.3,29.85,SSE,158,0.0,0.0,77,0.00,,---,0.00,VWS V14.01,2013-05-22 03:07:00,
2013-05-21 22:12:00,77.1,69.3,29.85,SSE,158,0.0,0.0,77,0.00,,---,0.00,VWS V14.01,2013-05-22 03:12:00,
2013-05-21 22:17:00,76.9,69.2,29.85,SW,225,0.0,0.0,77,0.00,,---,0.00,VWS V14.01,2013-05-22 03:17:00,
2013-05-21 22:22:00,76.9,69.2,29.85,SSE,158,0.0,0.0,77,0.00,,---,0.00,VWS V14.01,2013-05-22 03:22:00,
2013-05-21 22:27:00,76.9,69.5,29.88,SSE,158,0.0,0.0,78,0.00,,---,0.00,VWS V14.01,2013-05-22 03:27:00,
2013-05-21 22:32:00,76.7,69.4,29.88,SSE,158,0.0,0.0,78,0.00,,---,0.00,VWS V14.01,2013-05-22 03:32:00,
2013-05-21 22:37:00,76.7,69.4,29.88,ENE,68,0.0,0.0,78,0.00,,---,0.00,VWS V14.01,2013-05-22 03:37:00,
2013-05-21 22:42:00,76.6,69.6,29.88,SSW,202,0.0,0.0,79,0.00,,---,0.00,VWS V14.01,2013-05-22 03:42:00,
2013-05-21 22:47:00,76.6,69.6,29.88,SE,135,0.0,0.0,79,0.00,,---,0.00,VWS V14.01,2013-05-22 03:47:00,
2013-05-21 22:53:00,76.4,69.4,29.88,WSW,248,0.0,0.0,79,0.00,,---,0.00,VWS V14.01,2013-05-22 03:53:00,
2013-05-21 22:58:00,76.4,69.8,29.88,South,180,0.0,3.4,80,0.00,,---,0.00,VWS V14.01,2013-05-22 03:58:00,
2013-05-21 23:01:00,76.4,69.8,29.88,ESE,112,3.4,3.8,80,0.00,,---,0.00,VWS V14.01,2013-05-22 04:01:00,
2013-05-21 23:06:00,76.4,69.8,29.88,WSW,248,0.0,0.0,80,0.00,,---,0.00,VWS V14.01,2013-05-22 04:06:00,
2013-05-21 23:11:00,76.4,69.8,29.88,ESE,112,1.6,2.9,80,0.00,,---,0.00,VWS V14.01,2013-05-22 04:11:00,
2013-05-21 23:16:00,76.4,69.8,29.91,SSW,202,0.0,0.0,80,0.00,,---,0.00,VWS V14.01,2013-05-22 04:16:00,
2013-05-21 23:21:00,76.2,69.9,29.91,SSE,158,0.0,2.5,81,0.00,,---,0.00,VWS V14.01,2013-05-22 04:21:00,
2013-05-21 23:26:00,76.2,69.6,29.91,SE,135,0.0,0.0,80,0.00,,---,0.00,VWS V14.01,2013-05-22 04:26:00,
2013-05-21 23:31:00,76.0,69.8,29.88,SSE,158,0.0,0.0,81,0.00,,---,0.00,VWS V14.01,2013-05-22 04:31:00,
2013-05-21 23:36:00,76.0,69.8,29.88,ESE,112,0.0,0.0,81,0.00,,---,0.00,VWS V14.01,2013-05-22 04:36:00,
2013-05-21 23:41:00,75.8,70.0,29.88,ENE,68,0.0,0.0,82,0.00,,---,0.00,VWS V14.01,2013-05-22 04:41:00,
2013-05-21 23:46:00,75.7,69.8,29.88,SSE,158,0.0,0.0,82,0.00,,---,0.00,VWS V14.01,2013-05-22 04:46:00,
2013-05-21 23:51:00,75.7,69.8,29.88,ENE,68,0.0,0.0,82,0.00,,---,0.00,VWS V14.01,2013-05-22 04:51:00,
2013-05-21 23:56:00,75.5,70.0,29.88,ESE,112,0.0,0.0,83,0.00,,---,0.00,VWS V14.01,2013-05-22 04:56:00,